"Pseudo-MPEC" for P11JCp4

Created 2023 Sep 21 16:22:17 UT using Find_Orb

Click here for an explanation of pseudo-MPECs

 
 Astrometry: 
     P11JCp4* C2023 09 152kkwv4hRU\(iF[+rAstrometryF!)T^Q0A8W:6pIa/A8,U8db@ScF51
     P11JCp4  C2023 09 15U8[!:eUR?t.vhyF,aoCyUR%mAgJ*BbfCV+R/!q]0GK/G11..-6`fF51
     P11JCp4  C2023 09 15)V.KlmCXky=Cb?oE)pJl[WL?4,%T55b:pU.9gyl_vUXkT;b%-:,0F51
     P11JCp4  C2023 09 15]@u,+7F!F.nhaaM^p_OJk)aqx%$bxYXM?ce??1N3S5tZsD?#I?nRF51
     P11JCp4  C2023 09 15@*+xGGvYJEwidTlO.($hUH.XqM'$.GbmE/oA5NE4K4yAikKQMO?)F51
     P11JCp4  C2023 09 15Q';IUB'=ii04S%0h./W3D0Ug!)/72`?'cNJjredacted;k94U(g5F51
     P11JCp4 !C2023 09 16l/C!@0yP?@RE85.*GoIN2QRWvFkQ(2ftuclickchereOt)l9Ix93J04
     P11JCp4 !C2023 09 16!F4JI=]o:vo_MwKnq1!+*cy-;lI)GI=rr4/r^#nSvQgDAU#^;a!nJ04
     P11JCp4  C2023 09 18o`ryav=Yn+BgCE5wae((/^Jeb#ctLY4yYuuP/i5Q0Yw08e8AuPE`F52
     P11JCp4  C2023 09 18l-@pJ:v)(uWpFf:6rJoIJ%a6q\eG'%n4E^9:Bforu68R`9sOk%D:F52
     P11JCp4  C2023 09 18)#!sN8explanation^O?cCTbalUVhPF'),@VaIGfG;o$piR.'[NEF52
     P11JCp4  C2023 09 18Y\atN=PqmvxP]r,Du-dBHYF?RM^gU)F7ju@a%7/Vi99;]6-G20ZXF52

Station data:
(F51) Pan-STARRS 1, Haleakala  (N20.707234 W156.255910)  US/Hawaii.
   Observers J. Bulger, T. Lowe, A. Schultz, M. Willman. Measurers K.
   Chambers, S. Chastel, T. de Boer, L. Denneau, J. Fairlamb, H. Flewelling,
   M. Huber, C.-C. Lin, E. Magnier, Y. Ramanjooloo, R. Wainscoat, R. Weryk.
   1.8-m Ritchey-Chrétien + CCD.
(F52) Pan-STARRS 2, Haleakala  (N20.707382 W156.255910)  US/Hawaii.
   Observers J. Bulger, T. Dukes, T. Lowe, A. Schultz, M. Willman. Measurers
   K. Chambers, S. Chastel, T. de Boer, L. Denneau, J. Fairlamb, H.
   Flewelling, M. Huber, C.-C. Lin, E. Magnier, Y. Ramanjooloo, R. Wainscoat,
   R. Weryk. 1.8-m Ritchey-Chrétien + CCD.
(J04) ESA Optical Ground Station, Tenerife  (N28.300921 W16.511830)  Canary
   Islands (Spain).  Observer R. Kresken. Measurers M. Micheli, D. Koschny,
   E. Schwab, M. Busch, A. Knöfel. 1.0-m f/4.4 reflector + CCD.

Orbital elements:  P11JCp4
   Perihelion 2023 Aug 26.54134 +/- 0.00792 TT = 12:59:32 (JD 2460183.04134)
Epoch 2023 Sep 18.0 TT = JDT 2460205.5   Earth MOID: 0.0235      AutoNEOCP
M  16.27562511 +/- 0.010            (J2000 ecliptic)
n   0.72469272 +/- 0.00053          Peri.  162.60136 +/- 0.009
a   1.22753377 +/- 0.000598         Node   169.53439 +/- 0.0006
e   0.1655490 +/- 0.000387          Incl.   10.18828 +/- 0.016
P   1.36/496.75d           H 27.40  G  0.15   U  7.7
q 1.02431669 +/- 2.66e-5    Q 1.43075085 +/- 0.00117
11 of 12 observations 2023 Sept. 15-18; mean residual 0".15
Residuals in arcseconds: 
230915 F51  .10-  .16+    230915 F51  .20-  .13+    230918 F52  .26-  .27+    
230915 F51  .00   .08-    230915 F51  .12+  .03-    230918 F52  .25+  .13-    
230915 F51  .18+  .02-    230916 J04  .17-  .09-    230918 F52  .03+  .12-    
230915 F51  .06+  .10-    230916 J04  .18-  .23-    230918 F52( .47-  .98+)   

Ephemerides (geocentric):
Date (UTC) HH   RA             Dec           delta  r     elong  mag " sig PA
---- --------  ------------   ------------  ------ ------ -----  --- --------
2023 09 21 16  01 46 59.241   -31 06 59.83  .04660 1.0399 139.4 22.4 .145 174
2023 09 21 17  01 47 14.873   -31 10 56.26  .04672 1.0399 139.3 22.4 .144 174
2023 09 21 18  01 47 30.434   -31 14 51.18  .04685 1.0400 139.2 22.4 .142 175
2023 09 21 19  01 47 45.925   -31 18 44.60  .04698 1.0400 139.2 22.4 .140 175
2023 09 21 20  01 48 01.346   -31 22 36.54  .04710 1.0401 139.1 22.4 .139 176
2023 09 21 21  01 48 16.697   -31 26 27.00  .04723 1.0401 139.0 22.4 .137 176
2023 09 21 22  01 48 31.978   -31 30 16.01  .04736 1.0402 138.9 22.4 .135 177
2023 09 21 23  01 48 47.190   -31 34 03.56  .04749 1.0402 138.9 22.4 .134 177
2023 09 22 00  01 49 02.333   -31 37 49.67  .04761 1.0403 138.8 22.4 .132 178
2023 09 22 01  01 49 17.408   -31 41 34.36  .04774 1.0403 138.7 22.5 .131 178
2023 09 22 02  01 49 32.415   -31 45 17.62  .04787 1.0404 138.7 22.5 .129 179
2023 09 22 03  01 49 47.354   -31 48 59.47  .04800 1.0404 138.6 22.5 .128 179
2023 09 22 04  01 50 02.226   -31 52 39.93  .04813 1.0405 138.5 22.5 .126   0
2023 09 22 05  01 50 17.030   -31 56 19.00  .04825 1.0405 138.5 22.5 .125   1
2023 09 22 06  01 50 31.768   -31 59 56.69  .04838 1.0406 138.4 22.5 .124   1
2023 09 22 07  01 50 46.439   -32 03 33.01  .04851 1.0406 138.3 22.5 .122   2
2023 09 22 08  01 51 01.044   -32 07 07.97  .04864 1.0407 138.2 22.5 .121   3
2023 09 22 09  01 51 15.583   -32 10 41.59  .04877 1.0407 138.2 22.5 .120   3
2023 09 22 10  01 51 30.057   -32 14 13.87  .04890 1.0408 138.1 22.5 .118   4
2023 09 22 11  01 51 44.466   -32 17 44.82  .04903 1.0408 138.0 22.5 .117   5
2023 09 22 12  01 51 58.809   -32 21 14.46  .04915 1.0409 138.0 22.5 .116   6
2023 09 22 13  01 52 13.089   -32 24 42.78  .04928 1.0409 137.9 22.5 .115   7
2023 09 22 14  01 52 27.304   -32 28 09.81  .04941 1.0410 137.8 22.6 .114   7
2023 09 22 15  01 52 41.455   -32 31 35.55  .04954 1.0410 137.8 22.6 .113   8
2023 09 22 16  01 52 55.543   -32 35 00.01  .04967 1.0411 137.7 22.6 .112   9
2023 09 22 17  01 53 09.568   -32 38 23.19  .04980 1.0411 137.7 22.6 .111  10
2023 09 22 18  01 53 23.529   -32 41 45.12  .04993 1.0412 137.6 22.6 .110  11
2023 09 22 19  01 53 37.428   -32 45 05.80  .05006 1.0412 137.5 22.6 .109  12
2023 09 22 20  01 53 51.265   -32 48 25.23  .05019 1.0413 137.5 22.6 .108  13
2023 09 22 21  01 54 05.040   -32 51 43.43  .05032 1.0413 137.4 22.6 .108  14
2023 09 22 22  01 54 18.753   -32 55 00.40  .05045 1.0414 137.3 22.6 .107  15
2023 09 22 23  01 54 32.404   -32 58 16.16  .05058 1.0414 137.3 22.6 .106  16
2023 09 23 00  01 54 45.995   -33 01 30.71  .05071 1.0415 137.2 22.6 .106  17
2023 09 23 01  01 54 59.525   -33 04 44.06  .05084 1.0415 137.1 22.6 .105  18
2023 09 23 02  01 55 12.994   -33 07 56.22  .05097 1.0416 137.1 22.6 .105  19
2023 09 23 03  01 55 26.403   -33 11 07.21  .05110 1.0416 137.0 22.6 .104  20
2023 09 23 04  01 55 39.752   -33 14 17.02  .05123 1.0417 137.0 22.7 .104  21
2023 09 23 05  01 55 53.042   -33 17 25.66  .05136 1.0417 136.9 22.7 .103  22
2023 09 23 06  01 56 06.272   -33 20 33.15  .05149 1.0418 136.8 22.7 .103  23
2023 09 23 07  01 56 19.444   -33 23 39.49  .05162 1.0418 136.8 22.7 .103  24
2023 09 23 08  01 56 32.556   -33 26 44.70  .05176 1.0419 136.7 22.7 .103  25
2023 09 23 09  01 56 45.610   -33 29 48.77  .05189 1.0419 136.7 22.7 .103  27
2023 09 23 10  01 56 58.606   -33 32 51.72  .05202 1.0420 136.6 22.7 .103  28
2023 09 23 11  01 57 11.544   -33 35 53.56  .05215 1.0420 136.6 22.7 .103  29
2023 09 23 12  01 57 24.425   -33 38 54.28  .05228 1.0421 136.5 22.7 .103  30
2023 09 23 13  01 57 37.248   -33 41 53.91  .05241 1.0421 136.4 22.7 .103  31
2023 09 23 14  01 57 50.014   -33 44 52.45  .05254 1.0422 136.4 22.7 .103  32
2023 09 23 15  01 58 02.723   -33 47 49.91  .05267 1.0422 136.3 22.7 .103  33